This demonstration page uses our WeatherBlox Daily Observations layout. Learn more.

Left ArrowRight Arrow

Hourly Observations for October 19, 2015

Temp ( °F °C ) Dew Point ( °F °C ) Humidity (%) Winds ( mph kmh ) Pressure ( in mb ) Visibility ( mi km ) Precip ( " mm )
12:03 am 00:03 Mostly Cloudy with Nearby Thunderstorms 65 18.3 59 15 81 81 SSE 7 11 29.88 1012 10 16 N/A
12:11 am 00:11 Cloudy with Thunderstorms 65 18.3 59 15 81 81 SSE 10 17 29.88 1012 10 16 N/A
12:51 am 00:51 Mostly Cloudy with Thunderstorms 64 17.8 60 15.6 87 87 ESE 9 15 29.87 1011 10 16 0.03 0.76
1:04 am 01:04 Partly Cloudy with Nearby Thunderstorms 63 17.2 60 15.6 90 90 ESE 9 15 29.88 1012 10 16 N/A
1:18 am 01:18 Partly Cloudy 63 17.2 60 15.6 90 90 ESE 8 13 29.88 1012 10 16 N/A
1:51 am 01:51 Partly Cloudy 63 17.2 60 15.6 90 90 SE 10 17 29.87 1011 10 16 N/A
2:16 am 02:16 Clear with Nearby Thunderstorms 64 17.8 59 15 84 84 ESE 8 13 29.88 1012 10 16 N/A
2:31 am 02:31 Clear 62 16.7 60 15.6 93 93 WSW 5 7 29.88 1012 10 16 N/A
2:51 am 02:51 Clear 61 16.1 59 15 93 93 NW 10 17 29.88 1012 10 16 N/A
3:51 am 03:51 Clear 60 15.6 59 15 96 96 NW 3 6 29.88 1012 10 16 N/A
4:51 am 04:51 Clear 59 15 58 14.4 96 96 N N/A 29.88 1012 10 16 N/A
5:51 am 05:51 Clear 59 15 57 13.9 93 93 N 3 6 29.89 1012 10 16 N/A
6:51 am 06:51 Sunny 58 14.4 57 13.9 97 97 N N/A 29.91 1013 10 16 N/A
7:51 am 07:51 Sunny 66 18.9 59 15 78 78 SE 8 13 29.91 1013 10 16 N/A
8:51 am 08:51 Sunny 73 22.8 58 14.4 59 59 ESE 13 20 29.91 1013 10 16 N/A
9:51 am 09:51 Sunny 75 23.9 59 15 58 58 E 10 17 29.90 1013 10 16 N/A
10:51 am 10:51 Sunny 79 26.1 60 15.6 52 52 E 9 15 29.87 1012 10 16 N/A
11:51 am 11:51 Mostly Sunny 81 27.2 57 13.9 44 44 SE 10 17 29.85 1011 10 16 N/A
12:51 pm 12:51 Sunny 82 27.8 54 12.2 38 38 S 12 19 29.82 1010 10 16 N/A
1:51 pm 13:51 Partly Cloudy 84 28.9 52 11.1 33 33 SSE 6 9 29.78 1009 10 16 N/A
2:51 pm 14:51 Sunny 84 28.9 48 8.9 29 29 VRB 7 11 29.76 1008 10 16 N/A
3:51 pm 15:51 Sunny 85 29.4 42 5.6 22 22 SSW 18 30 29.74 1007 10 16 N/A
4:51 pm 16:51 Sunny 83 28.3 44 6.7 25 25 SW 9 15 29.74 1007 10 16 N/A
5:51 pm 17:51 Clear 77 25 50 10 39 39 VRB 3 6 29.75 1007 10 16 N/A
6:51 pm 18:51 Clear 74 23.3 49 9.4 41 41 SSW 3 6 29.77 1008 10 16 N/A
7:51 pm 19:51 Mostly Clear 70 21.1 52 11.1 53 53 N N/A 29.78 1009 10 16 N/A
8:51 pm 20:51 Clear 65 18.3 56 13.3 73 73 E 7 11 29.78 1009 10 16 N/A
9:51 pm 21:51 Clear 65 18.3 54 12.2 68 68 ESE 5 7 29.78 1009 10 16 N/A
10:51 pm 22:51 Clear 65 18.3 52 11.1 63 63 ESE 9 15 29.78 1008 10 16 N/A
11:51 pm 23:51 Clear 65 18.3 49 9.4 56 56 E 8 13 29.76 1008 10 16 N/A

Powered by AerisWeather